Weather History for LHSN - October, 2013

Change the Weather History Date:

Wednesday, October 9, 2013

  Actual Average (LHBP) Record (LHBP)
Temperature  
Mean Temperature 53 °F -  
Max Temperature 62 °F 62 °F 78 °F (1997)
Min Temperature 44 °F 44 °F 32 °F (2002)
Degree Days  
Heating Degree Days 12    
Growing Degree Days 3 (Base 50)    
Moisture  
Dew Point 42 °F    
Average Humidity 72    
Maximum Humidity 100    
Minimum Humidity 45    
Precipitation  
Precipitation 0.00 in - - ()
Sea Level Pressure  
Sea Level Pressure 30.14 in    
Wind  
Wind Speed 2 mph ()    
Max Wind Speed 9 mph    
Max Gust Speed -    
Visibility 4.4 miles    
Events Rain    
Averages and records for this station are not official NWS values.
T = Trace of Precipitation, MM = Missing Value Source: Averaged Metar Reports

Daily Weather History Graph

Daily Weather History Graph

Search for Another Location

Airport or City:

Trip Planner

Search our weather history database for the weather conditions in past years. The results will help you decide how hot, cold, wet, or windy it might be!

Date:

Astronomy

Oct. 09, 2013 Rise Set
Actual Time 6:48 AM CEST 6:03 PM CEST
Civil Twilight 6:18 AM CEST 6:33 PM CEST
Nautical Twilight 5:42 AM CEST 7:08 PM CEST
Astronomical Twilight 5:07 AM CEST 7:44 PM CEST
Moon 11:41 AM CEST (10/9) 9:03 PM CEST (10/9)
Length of Visible Light 12h 15m
Length of Day
11h 14m
Waxing Crescent, 22% of the Moon is Illuminated
Oct 9
Waxing Crescent
Oct 12
First Quarter
Oct 19
Full
Oct 27
Last Quarter
Nov 3
New

Hourly Weather History & Observations

Time (CEST) Temp. Dew Point Humidity Pressure Visibility Wind Dir Wind Speed Gust Speed Precip Events Conditions
12:15 AM 48.2 °F 35.6 °F 62% 30.24 in - NE 2.2 mph - N/A   Clear
12:45 AM 46.4 °F 35.6 °F 66% 30.24 in - Calm Calm - N/A   Clear
1:15 AM 44.6 °F 35.6 °F 71% 30.24 in - Variable 2.2 mph - N/A   Clear
1:45 AM 44.6 °F 35.6 °F 71% 30.24 in - Variable 2.2 mph - N/A   Clear
2:15 AM 44.6 °F 37.4 °F 76% 30.24 in - Calm Calm - N/A   Clear
2:45 AM 44.6 °F 37.4 °F 76% 30.24 in - NNW 2.2 mph - N/A   Clear
3:15 AM 44.6 °F 39.2 °F 81% 30.24 in - Calm Calm - N/A   Clear
3:45 AM - - N/A% - 3.1 mi Variable 4.5 mph - N/A Rain Rain
4:15 AM 44.6 °F 39.2 °F 81% 30.21 in - Calm Calm - N/A   Clear
4:45 AM 44.6 °F 39.2 °F 81% 30.21 in - NNE 2.2 mph - N/A   Clear
5:15 AM 44.6 °F 37.4 °F 76% 30.21 in - Calm Calm - N/A   Clear
5:45 AM 44.6 °F 37.4 °F 76% 30.21 in - NNE 2.2 mph - N/A   Clear
6:15 AM 44.6 °F 39.2 °F 81% 30.18 in - NE 2.2 mph - N/A   Clear
6:45 AM - - N/A% - 3.7 mi Variable 4.5 mph - N/A Rain Rain Showers
7:15 AM 44.6 °F 39.2 °F 81% 30.18 in - NE 2.2 mph - N/A   Clear
7:45 AM 44.6 °F 39.2 °F 81% 30.18 in - ENE 2.2 mph - N/A   Clear
8:15 AM 48.2 °F 37.4 °F 66% 30.18 in - ENE 2.2 mph - N/A   Clear
8:45 AM 50.0 °F 39.2 °F 66% 30.21 in - NE 2.2 mph - N/A   Clear
9:15 AM 50.0 °F 39.2 °F 66% 30.21 in - East 2.2 mph - N/A   Clear
9:45 AM - - N/A% - 5.0 mi Variable 4.5 mph - N/A Rain Rain Showers
9:53 AM 53.6 °F 39.2 °F 58% 30.18 in 6.2 mi ENE 2.2 mph - N/A Rain Light Rain Showers
10:15 AM 53.6 °F 39.2 °F 58% 30.18 in - East 2.2 mph - N/A   Clear
10:45 AM 55.4 °F 41.0 °F 58% 30.18 in - East 2.2 mph - N/A   Clear
11:15 AM 55.4 °F 41.0 °F 58% 30.18 in - NE 2.2 mph - N/A   Clear
11:45 AM 57.2 °F 41.0 °F 55% 30.18 in - ENE 2.2 mph - N/A   Clear
12:15 PM 57.2 °F 41.0 °F 55% 30.15 in - East 2.2 mph - N/A   Clear
12:45 PM - - N/A% - 5.0 mi Variable 4.5 mph - N/A Rain Rain Showers
1:15 PM 59.0 °F 41.0 °F 51% 30.15 in - SE 2.2 mph - N/A   Clear
1:45 PM 59.0 °F 41.0 °F 51% 30.12 in - East 4.5 mph - N/A   Clear
2:15 PM 60.8 °F 41.0 °F 48% 30.12 in - East 4.5 mph - N/A   Clear
2:45 PM 60.8 °F 41.0 °F 48% 30.12 in - East 4.5 mph - N/A   Clear
3:15 PM 62.6 °F 41.0 °F 45% 30.09 in - ESE 4.5 mph - N/A   Clear
3:45 PM - - N/A% - 5.0 mi Variable 4.5 mph - N/A Rain Rain Showers
4:15 PM 60.8 °F 39.2 °F 45% 30.09 in - SSE 8.9 mph - N/A   Clear
4:45 PM 60.8 °F 41.0 °F 48% 30.09 in - SE 6.7 mph - N/A   Clear
5:15 PM 60.8 °F 41.0 °F 48% 30.06 in - ESE 6.7 mph - N/A   Clear
5:45 PM 57.2 °F 44.6 °F 63% 30.06 in - SE 6.7 mph - N/A   Clear
6:04 PM 55.4 °F 48.2 °F 77% 30.06 in 6.2 mi SSE 8.9 mph - N/A Rain Light Rain Showers
6:15 PM 53.6 °F 50.0 °F 88% 30.06 in 5.0 mi SSE 6.7 mph - N/A Rain Rain Showers
6:45 PM - - N/A% - 5.0 mi Variable 4.5 mph - N/A Rain Rain Showers
7:15 PM 53.6 °F 51.8 °F 94% 30.06 in 5.0 mi Calm Calm - N/A Rain Light Rain Showers
7:45 PM 53.6 °F 51.8 °F 94% 30.06 in 5.0 mi Calm Calm - N/A Rain Light Rain Showers
8:15 PM 51.8 °F 51.8 °F 100% 30.06 in 5.0 mi Calm Calm - N/A Rain Light Rain
8:45 PM 53.6 °F 51.8 °F 94% 30.06 in 5.0 mi NE 2.2 mph - N/A Rain Light Rain
9:15 PM 51.8 °F 51.8 °F 100% 30.06 in 5.0 mi ENE 2.2 mph - N/A Rain Light Rain
9:45 PM - - N/A% - 3.1 mi Variable 4.5 mph - N/A Rain Rain
10:15 PM 51.8 °F 51.8 °F 100% 30.04 in 3.1 mi Calm Calm - N/A   Overcast
10:45 PM 51.8 °F 51.8 °F 100% 30.04 in 2.5 mi Calm Calm - N/A   Overcast
11:15 PM 51.8 °F 51.8 °F 100% 30.04 in 2.5 mi Calm Calm - N/A   Overcast
11:45 PM 51.8 °F 51.8 °F 100% 30.04 in 2.5 mi Calm Calm - N/A   Overcast